Year,Month,Day,Hour,Minute,Value (Times are PST for temperature in C)
2019,04,01,00,00,9.70
2019,04,01,00,01,9.70
2019,04,01,00,02,9.70
2019,04,01,00,03,9.70
2019,04,01,00,04,9.70
2019,04,01,00,05,9.60
2019,04,01,00,06,9.60
2019,04,01,00,07,9.50
2019,04,01,00,08,9.40
2019,04,01,00,09,9.40
2019,04,01,00,10,9.40
2019,04,01,00,11,9.30
2019,04,01,00,12,9.30
2019,04,01,00,13,9.40
2019,04,01,00,14,9.40
2019,04,01,00,15,9.50
2019,04,01,00,16,9.50
2019,04,01,00,17,9.50
2019,04,01,00,18,9.60
2019,04,01,00,19,9.60
2019,04,01,00,20,9.60
2019,04,01,00,21,9.60
2019,04,01,00,22,9.60
2019,04,01,00,23,9.60
2019,04,01,00,24,9.70
2019,04,01,00,25,9.70
2019,04,01,00,26,9.70
2019,04,01,00,27,9.70
2019,04,01,00,28,9.70
2019,04,01,00,29,9.70
2019,04,01,00,30,9.70
2019,04,01,00,31,9.70
2019,04,01,00,32,9.70
2019,04,01,00,33,9.70
2019,04,01,00,34,9.60
2019,04,01,00,35,9.60
2019,04,01,00,36,9.60
2019,04,01,00,37,9.60
2019,04,01,00,38,9.60
2019,04,01,00,39,9.60
2019,04,01,00,40,9.60
2019,04,01,00,41,9.50
2019,04,01,00,42,9.50
2019,04,01,00,43,9.50
2019,04,01,00,44,9.50
2019,04,01,00,45,9.40
2019,04,01,00,46,9.30
2019,04,01,00,47,9.30
2019,04,01,00,48,9.20
2019,04,01,00,49,9.20
2019,04,01,00,50,9.20
2019,04,01,00,51,9.10
2019,04,01,00,52,9.10
2019,04,01,00,53,9.10
2019,04,01,00,54,9.00
2019,04,01,00,55,9.00
2019,04,01,00,56,8.90
2019,04,01,00,57,8.90
2019,04,01,00,58,8.80
2019,04,01,00,59,8.80
2019,04,01,01,00,8.70
2019,04,01,01,01,8.70
2019,04,01,01,02,8.70
2019,04,01,01,03,8.70
2019,04,01,01,04,8.70
2019,04,01,01,05,8.70
2019,04,01,01,06,8.70
2019,04,01,01,07,8.70
2019,04,01,01,08,8.70
2019,04,01,01,09,8.70
2019,04,01,01,10,8.70
2019,04,01,01,11,8.70
2019,04,01,01,12,8.70
2019,04,01,01,13,8.70
2019,04,01,01,14,8.70
2019,04,01,01,15,8.70
2019,04,01,01,16,8.70
2019,04,01,01,17,8.70
2019,04,01,01,18,8.60
2019,04,01,01,19,8.60
2019,04,01,01,20,8.50
2019,04,01,01,21,8.50
2019,04,01,01,22,8.40
2019,04,01,01,23,8.30
2019,04,01,01,24,8.30
2019,04,01,01,25,8.30
2019,04,01,01,26,8.30
2019,04,01,01,27,8.30
2019,04,01,01,28,8.30
2019,04,01,01,29,8.20
2019,04,01,01,30,8.20
2019,04,01,01,31,8.20
2019,04,01,01,32,8.20
2019,04,01,01,33,8.20
2019,04,01,01,34,8.20
2019,04,01,01,35,8.20
2019,04,01,01,36,8.10
2019,04,01,01,37,8.10
2019,04,01,01,38,8.10
2019,04,01,01,39,8.10
2019,04,01,01,40,8.10
2019,04,01,01,41,8.10
2019,04,01,01,42,8.10
2019,04,01,01,43,8.10
2019,04,01,01,44,8.00
2019,04,01,01,45,8.00
2019,04,01,01,46,7.90
2019,04,01,01,47,7.90
2019,04,01,01,48,7.80
2019,04,01,01,49,7.80
2019,04,01,01,50,7.80
2019,04,01,01,51,7.80
2019,04,01,01,52,7.80
2019,04,01,01,53,7.70
2019,04,01,01,54,7.70
2019,04,01,01,55,7.70
2019,04,01,01,56,7.70
2019,04,01,01,57,7.70
2019,04,01,01,58,7.60
2019,04,01,01,59,7.60
2019,04,01,02,00,7.60
2019,04,01,02,01,7.60
2019,04,01,02,02,7.60
2019,04,01,02,03,7.60
2019,04,01,02,04,7.60
2019,04,01,02,05,7.70
2019,04,01,02,06,7.70
2019,04,01,02,07,7.70
2019,04,01,02,08,7.70
2019,04,01,02,09,7.80
2019,04,01,02,10,7.80
2019,04,01,02,11,7.80
2019,04,01,02,12,7.80
2019,04,01,02,13,7.80
2019,04,01,02,14,7.80
2019,04,01,02,15,7.80
2019,04,01,02,16,7.80
2019,04,01,02,17,7.80
2019,04,01,02,18,7.80
2019,04,01,02,19,7.80
2019,04,01,02,20,7.70
2019,04,01,02,21,7.70
2019,04,01,02,22,7.70
2019,04,01,02,23,7.70
2019,04,01,02,24,7.60
2019,04,01,02,25,7.60
2019,04,01,02,26,7.50
2019,04,01,02,27,7.50
2019,04,01,02,28,7.50
2019,04,01,02,29,7.40
2019,04,01,02,30,7.40
2019,04,01,02,31,7.40
2019,04,01,02,32,7.30
2019,04,01,02,33,7.30
2019,04,01,02,34,7.30
2019,04,01,02,35,7.20
2019,04,01,02,36,7.20
2019,04,01,02,37,7.10
2019,04,01,02,38,7.20
2019,04,01,02,39,7.20
2019,04,01,02,40,7.20
2019,04,01,02,41,7.20
2019,04,01,02,42,7.30
2019,04,01,02,43,7.30
2019,04,01,02,44,7.40
2019,04,01,02,45,7.40
2019,04,01,02,46,7.40
2019,04,01,02,47,7.40
2019,04,01,02,48,7.50
2019,04,01,02,49,7.50
2019,04,01,02,50,7.50
2019,04,01,02,51,7.60
2019,04,01,02,52,7.60
2019,04,01,02,53,7.60
2019,04,01,02,54,7.60
2019,04,01,02,55,7.60
2019,04,01,02,56,7.60
2019,04,01,02,57,7.60
2019,04,01,02,58,7.70
2019,04,01,02,59,7.70
2019,04,01,03,00,7.70
2019,04,01,03,01,7.70
2019,04,01,03,02,7.70
2019,04,01,03,03,7.70
2019,04,01,03,04,7.70
2019,04,01,03,05,7.70
2019,04,01,03,06,7.70
2019,04,01,03,07,7.60
2019,04,01,03,08,7.60
2019,04,01,03,09,7.60
2019,04,01,03,10,7.60
2019,04,01,03,11,7.50
2019,04,01,03,12,7.50
2019,04,01,03,13,7.50
2019,04,01,03,14,7.40
2019,04,01,03,15,7.40
2019,04,01,03,16,7.40
2019,04,01,03,17,7.40
2019,04,01,03,18,7.40
2019,04,01,03,19,7.40
2019,04,01,03,20,7.50
2019,04,01,03,21,7.50
2019,04,01,03,22,7.40
2019,04,01,03,23,7.30
2019,04,01,03,24,7.30
2019,04,01,03,25,7.20
2019,04,01,03,26,7.20
2019,04,01,03,27,7.10
2019,04,01,03,28,7.10
2019,04,01,03,29,7.10
2019,04,01,03,30,7.10
2019,04,01,03,31,7.10
2019,04,01,03,32,7.10
2019,04,01,03,33,7.10
2019,04,01,03,34,7.10
2019,04,01,03,35,7.10
2019,04,01,03,36,7.10
2019,04,01,03,37,7.10
2019,04,01,03,38,7.10
2019,04,01,03,39,7.10
2019,04,01,03,40,7.10
2019,04,01,03,41,7.10
2019,04,01,03,42,7.10
2019,04,01,03,43,7.10
2019,04,01,03,44,7.10
2019,04,01,03,45,7.10
2019,04,01,03,46,7.10
2019,04,01,03,47,7.10
2019,04,01,03,48,7.10
2019,04,01,03,49,7.10
2019,04,01,03,50,7.00
2019,04,01,03,51,7.00
2019,04,01,03,52,7.00
2019,04,01,03,53,7.10
2019,04,01,03,54,7.10
2019,04,01,03,55,7.20
2019,04,01,03,56,7.20
2019,04,01,03,57,7.30
2019,04,01,03,58,7.40
2019,04,01,03,59,7.40
2019,04,01,04,00,7.50
2019,04,01,04,01,7.60
2019,04,01,04,02,7.60
2019,04,01,04,03,7.70
2019,04,01,04,04,7.80
2019,04,01,04,05,7.80
2019,04,01,04,06,7.90
2019,04,01,04,07,7.90
2019,04,01,04,08,7.90
2019,04,01,04,09,7.90
2019,04,01,04,10,7.90
2019,04,01,04,11,7.90
2019,04,01,04,12,7.80
2019,04,01,04,13,7.90
2019,04,01,04,14,7.80
2019,04,01,04,15,7.80
2019,04,01,04,16,7.90
2019,04,01,04,17,7.90
2019,04,01,04,18,7.90
2019,04,01,04,19,7.90
2019,04,01,04,20,7.90
2019,04,01,04,21,7.90
2019,04,01,04,22,7.90
2019,04,01,04,23,7.90
2019,04,01,04,24,7.90
2019,04,01,04,25,7.90
2019,04,01,04,26,7.90
2019,04,01,04,27,7.90
2019,04,01,04,28,7.90
2019,04,01,04,29,7.90
2019,04,01,04,30,7.80
2019,04,01,04,31,7.80
2019,04,01,04,32,7.80
2019,04,01,04,33,7.80
2019,04,01,04,34,7.80
2019,04,01,04,35,7.70
2019,04,01,04,36,7.70
2019,04,01,04,37,7.70
2019,04,01,04,38,7.70
2019,04,01,04,39,7.70
2019,04,01,04,40,7.70
2019,04,01,04,41,7.70
2019,04,01,04,42,7.80
2019,04,01,04,43,7.80
2019,04,01,04,44,7.80
2019,04,01,04,45,7.90
2019,04,01,04,46,8.00
2019,04,01,04,47,8.00
2019,04,01,04,48,8.10
2019,04,01,04,49,8.10
2019,04,01,04,50,8.10
2019,04,01,04,51,8.10
2019,04,01,04,52,8.20
2019,04,01,04,53,8.20
2019,04,01,04,54,8.20
2019,04,01,04,55,8.30
2019,04,01,04,56,8.30
2019,04,01,04,57,8.20
2019,04,01,04,58,8.20
2019,04,01,04,59,8.10
2019,04,01,05,00,8.00
2019,04,01,05,01,8.00
2019,04,01,05,02,8.00
2019,04,01,05,03,7.90
2019,04,01,05,04,7.90
2019,04,01,05,05,7.90
2019,04,01,05,06,7.90
2019,04,01,05,07,7.90
2019,04,01,05,08,7.90
2019,04,01,05,09,7.90
2019,04,01,05,10,7.90
2019,04,01,05,11,7.90
2019,04,01,05,12,7.80
2019,04,01,05,13,7.80
2019,04,01,05,14,7.80
2019,04,01,05,15,7.70
2019,04,01,05,16,7.70
2019,04,01,05,17,7.50
2019,04,01,05,18,7.40
2019,04,01,05,19,7.30
2019,04,01,05,20,7.20
2019,04,01,05,21,7.10
2019,04,01,05,22,7.00
2019,04,01,05,23,6.90
2019,04,01,05,24,6.90
2019,04,01,05,25,6.90
2019,04,01,05,26,6.90
2019,04,01,05,27,6.90
2019,04,01,05,28,6.90
2019,04,01,05,29,7.00
2019,04,01,05,30,7.00
2019,04,01,05,31,7.10
2019,04,01,05,32,7.10
2019,04,01,05,33,7.20
2019,04,01,05,34,7.20
2019,04,01,05,35,7.20
2019,04,01,05,36,7.20
2019,04,01,05,37,7.30
2019,04,01,05,38,7.30
2019,04,01,05,39,7.30
2019,04,01,05,40,7.40
2019,04,01,05,41,7.40
2019,04,01,05,42,7.40
2019,04,01,05,43,7.50
2019,04,01,05,44,7.50
2019,04,01,05,45,7.50
2019,04,01,05,46,7.60
2019,04,01,05,47,7.60
2019,04,01,05,48,7.70
2019,04,01,05,49,7.70
2019,04,01,05,50,7.80
2019,04,01,05,51,7.80
2019,04,01,05,52,7.80
2019,04,01,05,53,7.90
2019,04,01,05,54,7.90
2019,04,01,05,55,8.00
2019,04,01,05,56,8.00
2019,04,01,05,57,8.10
2019,04,01,05,58,8.10
2019,04,01,05,59,8.10
2019,04,01,06,00,8.10
2019,04,01,06,01,8.20
2019,04,01,06,02,8.20
2019,04,01,06,03,8.30
2019,04,01,06,04,8.30
2019,04,01,06,05,8.30
2019,04,01,06,06,8.40
2019,04,01,06,07,8.50
2019,04,01,06,08,8.50
2019,04,01,06,09,8.60
2019,04,01,06,10,8.60
2019,04,01,06,11,8.60
2019,04,01,06,12,8.70
2019,04,01,06,13,8.70
2019,04,01,06,14,8.70
2019,04,01,06,15,8.70
2019,04,01,06,16,8.80
2019,04,01,06,17,8.80
2019,04,01,06,18,8.90
2019,04,01,06,19,9.00
2019,04,01,06,20,9.00
2019,04,01,06,21,9.10
2019,04,01,06,22,9.10
2019,04,01,06,23,9.10
2019,04,01,06,24,9.10
2019,04,01,06,25,9.10
2019,04,01,06,26,9.10
2019,04,01,06,27,9.10
2019,04,01,06,28,9.10
2019,04,01,06,29,9.10
2019,04,01,06,30,9.00
2019,04,01,06,31,9.00
2019,04,01,06,32,9.00
2019,04,01,06,33,8.90
2019,04,01,06,34,8.90
2019,04,01,06,35,8.90
2019,04,01,06,36,8.90
2019,04,01,06,37,8.90
2019,04,01,06,38,8.90
2019,04,01,06,39,8.90
2019,04,01,06,40,8.90
2019,04,01,06,41,8.90
2019,04,01,06,42,8.90
2019,04,01,06,43,8.90
2019,04,01,06,44,8.90
2019,04,01,06,45,8.90
2019,04,01,06,46,8.90
2019,04,01,06,47,8.90
2019,04,01,06,48,8.90
2019,04,01,06,49,8.90
2019,04,01,06,50,8.90
2019,04,01,06,51,8.90
2019,04,01,06,52,8.90
2019,04,01,06,53,8.90
2019,04,01,06,54,9.00
2019,04,01,06,55,9.00
2019,04,01,06,56,9.00
2019,04,01,06,57,9.00
2019,04,01,06,58,9.00
2019,04,01,06,59,9.00
2019,04,01,07,00,9.10
2019,04,01,07,01,9.10
2019,04,01,07,02,9.10
2019,04,01,07,03,9.20
2019,04,01,07,04,9.20
2019,04,01,07,05,9.20
2019,04,01,07,06,9.20
2019,04,01,07,07,9.20
2019,04,01,07,08,9.20
2019,04,01,07,09,9.20
2019,04,01,07,10,9.20
2019,04,01,07,11,9.20
2019,04,01,07,12,9.20
2019,04,01,07,13,9.20
2019,04,01,07,14,9.20
2019,04,01,07,15,9.20
2019,04,01,07,16,9.20
2019,04,01,07,17,9.20
2019,04,01,07,18,9.20
2019,04,01,07,19,9.20
2019,04,01,07,20,9.20
2019,04,01,07,21,9.30
2019,04,01,07,22,9.30
2019,04,01,07,23,9.30
2019,04,01,07,24,9.30
2019,04,01,07,25,9.30
2019,04,01,07,26,9.40
2019,04,01,07,27,9.40
2019,04,01,07,28,9.40
2019,04,01,07,29,9.40
2019,04,01,07,30,9.40
2019,04,01,07,31,9.40
2019,04,01,07,32,9.40
2019,04,01,07,33,9.40
2019,04,01,07,34,9.40
2019,04,01,07,35,9.40
2019,04,01,07,36,9.40
2019,04,01,07,37,9.50
2019,04,01,07,38,9.50
2019,04,01,07,39,9.60
2019,04,01,07,40,9.70
2019,04,01,07,41,9.70
2019,04,01,07,42,9.70
2019,04,01,07,43,9.80
2019,04,01,07,44,9.80
2019,04,01,07,45,9.80
2019,04,01,07,46,9.80
2019,04,01,07,47,9.80
2019,04,01,07,48,9.80
2019,04,01,07,49,9.80
2019,04,01,07,50,9.70
2019,04,01,07,51,9.70
2019,04,01,07,52,9.80
2019,04,01,07,53,9.80
2019,04,01,07,54,9.80
2019,04,01,07,55,9.80
2019,04,01,07,56,9.80
2019,04,01,07,57,9.80
2019,04,01,07,58,9.80
2019,04,01,07,59,9.80
2019,04,01,08,00,9.80
2019,04,01,08,01,9.80
2019,04,01,08,02,9.80
2019,04,01,08,03,9.80
2019,04,01,08,04,9.80
2019,04,01,08,05,9.80
2019,04,01,08,06,9.90
2019,04,01,08,07,9.90
2019,04,01,08,08,9.90
2019,04,01,08,09,9.90
2019,04,01,08,10,10.00
2019,04,01,08,11,10.00
2019,04,01,08,12,10.00
2019,04,01,08,13,10.10
2019,04,01,08,14,10.10
2019,04,01,08,15,10.10
2019,04,01,08,16,10.20
2019,04,01,08,17,10.20
2019,04,01,08,18,10.30
2019,04,01,08,19,10.30
2019,04,01,08,20,10.30
2019,04,01,08,21,10.40
2019,04,01,08,22,10.40
2019,04,01,08,23,10.40
2019,04,01,08,24,10.40
2019,04,01,08,25,10.40
2019,04,01,08,26,10.50
2019,04,01,08,27,10.50
2019,04,01,08,28,10.50
2019,04,01,08,29,10.50
2019,04,01,08,30,10.50
2019,04,01,08,31,10.60
2019,04,01,08,32,10.60
2019,04,01,08,33,10.60
2019,04,01,08,34,10.60
2019,04,01,08,35,10.60
2019,04,01,08,36,10.70
2019,04,01,08,37,10.70
2019,04,01,08,38,10.70
2019,04,01,08,39,10.70
2019,04,01,08,40,10.80
2019,04,01,08,41,10.80
2019,04,01,08,42,10.80
2019,04,01,08,43,10.80
2019,04,01,08,44,10.80
2019,04,01,08,45,10.80
2019,04,01,08,46,10.80
2019,04,01,08,47,10.80
2019,04,01,08,48,10.80
2019,04,01,08,49,10.90
2019,04,01,08,50,10.90
2019,04,01,08,51,10.90
2019,04,01,08,52,11.00
2019,04,01,08,53,11.00
2019,04,01,08,54,11.00
2019,04,01,08,55,11.00
2019,04,01,08,56,11.10
2019,04,01,08,57,11.10
2019,04,01,08,58,11.10
2019,04,01,08,59,11.10
2019,04,01,09,00,11.20
2019,04,01,09,01,11.20
2019,04,01,09,02,11.30
2019,04,01,09,03,11.30
2019,04,01,09,04,11.40
2019,04,01,09,05,11.40
2019,04,01,09,06,11.40
2019,04,01,09,07,11.50
2019,04,01,09,08,11.60
2019,04,01,09,09,11.60
2019,04,01,09,10,11.60
2019,04,01,09,11,11.70
2019,04,01,09,12,11.70
2019,04,01,09,13,11.80
2019,04,01,09,14,11.80
2019,04,01,09,15,11.80
2019,04,01,09,16,11.80
2019,04,01,09,17,11.90
2019,04,01,09,18,11.90
2019,04,01,09,19,12.00
2019,04,01,09,20,12.00
2019,04,01,09,21,12.10
2019,04,01,09,22,12.10
2019,04,01,09,23,12.10
2019,04,01,09,24,12.10
2019,04,01,09,25,12.10
2019,04,01,09,26,12.20
2019,04,01,09,27,12.20
2019,04,01,09,28,12.20
2019,04,01,09,29,12.30
2019,04,01,09,30,12.30
2019,04,01,09,31,12.30
2019,04,01,09,32,12.30
2019,04,01,09,33,12.30
2019,04,01,09,34,12.40
2019,04,01,09,35,12.40
2019,04,01,09,36,12.40
2019,04,01,09,37,12.40
2019,04,01,09,38,12.40
2019,04,01,09,39,12.40
2019,04,01,09,40,12.40
2019,04,01,09,41,12.50
2019,04,01,09,42,12.50
2019,04,01,09,43,12.60
2019,04,01,09,44,12.60
2019,04,01,09,45,12.60
2019,04,01,09,46,12.50
2019,04,01,09,47,12.50
2019,04,01,09,48,12.50
2019,04,01,09,49,12.40
2019,04,01,09,50,12.50
2019,04,01,09,51,12.50
2019,04,01,09,52,12.50
2019,04,01,09,53,12.50
2019,04,01,09,54,12.50
2019,04,01,09,55,12.50
2019,04,01,09,56,12.60
2019,04,01,09,57,12.60
2019,04,01,09,58,12.70
2019,04,01,09,59,12.70
2019,04,01,10,00,12.70
2019,04,01,10,01,12.70
2019,04,01,10,02,12.80
2019,04,01,10,03,12.80
2019,04,01,10,04,12.80
2019,04,01,10,05,12.80
2019,04,01,10,06,12.80
2019,04,01,10,07,12.70
2019,04,01,10,08,12.70
2019,04,01,10,09,12.70
2019,04,01,10,10,12.70
2019,04,01,10,11,12.70
2019,04,01,10,12,12.60
2019,04,01,10,13,12.60
2019,04,01,10,14,12.60
2019,04,01,10,15,12.60
2019,04,01,10,16,12.60
2019,04,01,10,17,12.50
2019,04,01,10,18,12.50
2019,04,01,10,19,12.60
2019,04,01,10,20,12.60
2019,04,01,10,21,12.60
2019,04,01,10,22,12.60
2019,04,01,10,23,12.60
2019,04,01,10,24,12.60
2019,04,01,10,25,12.60
2019,04,01,10,26,12.70
2019,04,01,10,27,12.70
2019,04,01,10,28,12.90
2019,04,01,10,29,12.90
2019,04,01,10,30,12.90
2019,04,01,10,31,12.90
2019,04,01,10,32,12.80
2019,04,01,10,33,12.80
2019,04,01,10,34,12.80
2019,04,01,10,35,12.80
2019,04,01,10,36,12.80
2019,04,01,10,37,12.80
2019,04,01,10,38,12.70
2019,04,01,10,39,12.70
2019,04,01,10,40,12.80
2019,04,01,10,41,12.70
2019,04,01,10,42,12.70
2019,04,01,10,43,12.70
2019,04,01,10,44,12.80
2019,04,01,10,45,12.80
2019,04,01,10,46,12.80
2019,04,01,10,47,12.80
2019,04,01,10,48,12.80
2019,04,01,10,49,12.90
2019,04,01,10,50,12.90
2019,04,01,10,51,13.00
2019,04,01,10,52,13.10
2019,04,01,10,53,13.20
2019,04,01,10,54,13.20
2019,04,01,10,55,13.20
2019,04,01,10,56,13.20
2019,04,01,10,57,13.20
2019,04,01,10,58,13.20
2019,04,01,10,59,13.20
2019,04,01,11,00,13.20
2019,04,01,11,01,13.20
2019,04,01,11,02,13.20
2019,04,01,11,03,13.20
2019,04,01,11,04,13.20
2019,04,01,11,05,13.30
2019,04,01,11,06,13.30
2019,04,01,11,07,13.30
2019,04,01,11,08,13.30
2019,04,01,11,09,13.40
2019,04,01,11,10,13.40
2019,04,01,11,11,13.40
2019,04,01,11,12,13.50
2019,04,01,11,13,13.50
2019,04,01,11,14,13.50
2019,04,01,11,15,13.50
2019,04,01,11,16,13.50
2019,04,01,11,17,13.60
2019,04,01,11,18,13.70
2019,04,01,11,19,13.70
2019,04,01,11,20,13.80
2019,04,01,11,21,13.90
2019,04,01,11,22,14.00
2019,04,01,11,23,14.10
2019,04,01,11,24,14.20
2019,04,01,11,25,14.20
2019,04,01,11,26,14.20
2019,04,01,11,27,14.20
2019,04,01,11,28,14.10
2019,04,01,11,29,14.20
2019,04,01,11,30,14.20
2019,04,01,11,31,14.30
2019,04,01,11,32,14.20
2019,04,01,11,33,14.10
2019,04,01,11,34,14.10
2019,04,01,11,35,14.10
2019,04,01,11,36,14.20
2019,04,01,11,37,14.30
2019,04,01,11,38,14.30
2019,04,01,11,39,14.40
2019,04,01,11,40,14.50
2019,04,01,11,41,14.60
2019,04,01,11,42,14.60
2019,04,01,11,43,14.60
2019,04,01,11,44,14.70
2019,04,01,11,45,14.70
2019,04,01,11,46,14.60
2019,04,01,11,47,14.60
2019,04,01,11,48,14.50
2019,04,01,11,49,14.50
2019,04,01,11,50,14.50
2019,04,01,11,51,14.50
2019,04,01,11,52,14.50
2019,04,01,11,53,14.50
2019,04,01,11,54,14.50
2019,04,01,11,55,14.50
2019,04,01,11,56,14.50
2019,04,01,11,57,14.40
2019,04,01,11,58,14.40
2019,04,01,11,59,14.50
2019,04,01,12,00,14.50
2019,04,01,12,01,14.50
2019,04,01,12,02,14.60
2019,04,01,12,03,14.70
2019,04,01,12,04,14.80
2019,04,01,12,05,14.80
2019,04,01,12,06,14.80
2019,04,01,12,07,14.80
2019,04,01,12,08,14.80
2019,04,01,12,09,14.70
2019,04,01,12,10,14.70
2019,04,01,12,11,14.70
2019,04,01,12,12,14.80
2019,04,01,12,13,14.80
2019,04,01,12,14,14.80
2019,04,01,12,15,14.80
2019,04,01,12,16,14.70
2019,04,01,12,17,14.60
2019,04,01,12,18,14.60
2019,04,01,12,19,14.60
2019,04,01,12,20,14.60
2019,04,01,12,21,14.60
2019,04,01,12,22,14.70
2019,04,01,12,23,14.70
2019,04,01,12,24,14.70
2019,04,01,12,25,14.70
2019,04,01,12,26,14.80
2019,04,01,12,27,14.80
2019,04,01,12,28,14.90
2019,04,01,12,29,15.00
2019,04,01,12,30,15.10
2019,04,01,12,31,15.00
2019,04,01,12,32,15.00
2019,04,01,12,33,14.90
2019,04,01,12,34,14.80
2019,04,01,12,35,14.80
2019,04,01,12,36,14.90
2019,04,01,12,37,14.90
2019,04,01,12,38,15.00
2019,04,01,12,39,15.10
2019,04,01,12,40,15.10
2019,04,01,12,41,15.20
2019,04,01,12,42,15.20
2019,04,01,12,43,15.20
2019,04,01,12,44,15.20
2019,04,01,12,45,15.20
2019,04,01,12,46,15.20
2019,04,01,12,47,15.20
2019,04,01,12,48,15.20
2019,04,01,12,49,15.10
2019,04,01,12,50,15.10
2019,04,01,12,51,15.20
2019,04,01,12,52,15.30
2019,04,01,12,53,15.40
2019,04,01,12,54,15.50
2019,04,01,12,55,15.60
2019,04,01,12,56,15.70
2019,04,01,12,57,15.70
2019,04,01,12,58,15.70
2019,04,01,12,59,15.70
2019,04,01,13,00,15.60
2019,04,01,13,01,15.60
2019,04,01,13,02,15.70
2019,04,01,13,03,15.70
2019,04,01,13,04,15.60
2019,04,01,13,05,15.50
2019,04,01,13,06,15.50
2019,04,01,13,07,15.40
2019,04,01,13,08,15.40
2019,04,01,13,09,15.40
2019,04,01,13,10,15.40
2019,04,01,13,11,15.40
2019,04,01,13,12,15.40
2019,04,01,13,13,15.40
2019,04,01,13,14,15.40
2019,04,01,13,15,15.50
2019,04,01,13,16,15.50
2019,04,01,13,17,15.60
2019,04,01,13,18,15.60
2019,04,01,13,19,15.70
2019,04,01,13,20,15.80
2019,04,01,13,21,15.90
2019,04,01,13,22,16.00
2019,04,01,13,23,16.10
2019,04,01,13,24,16.00
2019,04,01,13,25,15.80
2019,04,01,13,26,15.80
2019,04,01,13,27,15.70
2019,04,01,13,28,15.70
2019,04,01,13,29,15.80
2019,04,01,13,30,15.90
2019,04,01,13,31,15.90
2019,04,01,13,32,16.00
2019,04,01,13,33,16.00
2019,04,01,13,34,15.90
2019,04,01,13,35,15.90
2019,04,01,13,36,15.90
2019,04,01,13,37,15.90
2019,04,01,13,38,15.90
2019,04,01,13,39,15.90
2019,04,01,13,40,15.90
2019,04,01,13,41,15.90
2019,04,01,13,42,16.00
2019,04,01,13,43,16.10
2019,04,01,13,44,16.10
2019,04,01,13,45,16.20
2019,04,01,13,46,16.30
2019,04,01,13,47,16.30
2019,04,01,13,48,16.30
2019,04,01,13,49,16.30
2019,04,01,13,50,16.30
2019,04,01,13,51,16.30
2019,04,01,13,52,16.30
2019,04,01,13,53,16.30
2019,04,01,13,54,16.40
2019,04,01,13,55,16.30
2019,04,01,13,56,16.30
2019,04,01,13,57,16.30
2019,04,01,13,58,16.30
2019,04,01,13,59,16.30
2019,04,01,14,00,16.30
2019,04,01,14,01,16.20
2019,04,01,14,02,16.20
2019,04,01,14,03,16.30
2019,04,01,14,04,16.40
2019,04,01,14,05,16.50
2019,04,01,14,06,16.50
2019,04,01,14,07,16.60
2019,04,01,14,08,16.60
2019,04,01,14,09,16.60
2019,04,01,14,10,16.60
2019,04,01,14,11,16.60
2019,04,01,14,12,16.60
2019,04,01,14,13,16.60
2019,04,01,14,14,16.70
2019,04,01,14,15,16.80
2019,04,01,14,16,16.80
2019,04,01,14,17,16.90
2019,04,01,14,18,17.00
2019,04,01,14,19,17.10
2019,04,01,14,20,17.10
2019,04,01,14,21,17.10
2019,04,01,14,22,17.10
2019,04,01,14,23,17.10
2019,04,01,14,24,17.10
2019,04,01,14,25,17.00
2019,04,01,14,26,17.00
2019,04,01,14,27,17.00
2019,04,01,14,28,17.00
2019,04,01,14,29,17.10
2019,04,01,14,30,17.10
2019,04,01,14,31,17.20
2019,04,01,14,32,17.20
2019,04,01,14,33,17.20
2019,04,01,14,34,17.30
2019,04,01,14,35,17.30
2019,04,01,14,36,17.30
2019,04,01,14,37,17.30
2019,04,01,14,38,17.30
2019,04,01,14,39,17.30
2019,04,01,14,40,17.50
2019,04,01,14,41,17.50
2019,04,01,14,42,17.50
2019,04,01,14,43,17.50
2019,04,01,14,44,17.50
2019,04,01,14,45,17.40
2019,04,01,14,46,17.30
2019,04,01,14,47,17.20
2019,04,01,14,48,17.20
2019,04,01,14,49,17.20
2019,04,01,14,50,17.20
2019,04,01,14,51,17.30
2019,04,01,14,52,17.20
2019,04,01,14,53,17.20
2019,04,01,14,54,17.20
2019,04,01,14,55,17.20
2019,04,01,14,56,17.10
2019,04,01,14,57,17.10
2019,04,01,14,58,17.10
2019,04,01,14,59,17.10
2019,04,01,15,00,17.10
2019,04,01,15,01,17.10
2019,04,01,15,02,17.20
2019,04,01,15,03,17.20
2019,04,01,15,04,17.10
2019,04,01,15,05,17.10
2019,04,01,15,06,17.00
2019,04,01,15,07,16.90
2019,04,01,15,08,16.80
2019,04,01,15,09,16.80
2019,04,01,15,10,16.80
2019,04,01,15,11,16.80
2019,04,01,15,12,16.70
2019,04,01,15,13,16.70
2019,04,01,15,14,16.80
2019,04,01,15,15,16.80
2019,04,01,15,16,16.80
2019,04,01,15,17,16.80
2019,04,01,15,18,16.80
2019,04,01,15,19,16.80
2019,04,01,15,20,16.80
2019,04,01,15,21,16.90
2019,04,01,15,22,16.90
2019,04,01,15,23,17.00
2019,04,01,15,24,17.00
2019,04,01,15,25,17.10
2019,04,01,15,26,17.10
2019,04,01,15,27,17.20
2019,04,01,15,28,17.20
2019,04,01,15,29,17.20
2019,04,01,15,30,17.30
2019,04,01,15,31,17.30
2019,04,01,15,32,17.20
2019,04,01,15,33,17.20
2019,04,01,15,34,17.20
2019,04,01,15,35,17.20
2019,04,01,15,36,17.20
2019,04,01,15,37,17.20
2019,04,01,15,38,17.20
2019,04,01,15,39,17.20
2019,04,01,15,40,17.20
2019,04,01,15,41,17.20
2019,04,01,15,42,17.20
2019,04,01,15,43,17.30
2019,04,01,15,44,17.20
2019,04,01,15,45,17.20
2019,04,01,15,46,17.20
2019,04,01,15,47,17.20
2019,04,01,15,48,17.20
2019,04,01,15,49,17.20
2019,04,01,15,50,17.30
2019,04,01,15,51,17.20
2019,04,01,15,52,17.30
2019,04,01,15,53,17.30
2019,04,01,15,54,17.40
2019,04,01,15,55,17.40
2019,04,01,15,56,17.50
2019,04,01,15,57,17.60
2019,04,01,15,58,17.50
2019,04,01,15,59,17.50
2019,04,01,16,00,17.60
2019,04,01,16,01,17.60
2019,04,01,16,02,17.70
2019,04,01,16,03,17.70
2019,04,01,16,04,17.70
2019,04,01,16,05,17.80
2019,04,01,16,06,17.80
2019,04,01,16,07,17.80
2019,04,01,16,08,17.80
2019,04,01,16,09,17.80
2019,04,01,16,10,17.70
2019,04,01,16,11,17.60
2019,04,01,16,12,17.60
2019,04,01,16,13,17.60
2019,04,01,16,14,17.60
2019,04,01,16,15,17.60
2019,04,01,16,16,17.60
2019,04,01,16,17,17.60
2019,04,01,16,18,17.60
2019,04,01,16,19,17.60
2019,04,01,16,20,17.80
2019,04,01,16,21,17.90
2019,04,01,16,22,17.90
2019,04,01,16,23,17.90
2019,04,01,16,24,17.90
2019,04,01,16,25,18.00
2019,04,01,16,26,18.00
2019,04,01,16,27,18.00
2019,04,01,16,28,18.00
2019,04,01,16,29,18.00
2019,04,01,16,30,17.90
2019,04,01,16,31,17.90
2019,04,01,16,32,17.80
2019,04,01,16,33,17.80
2019,04,01,16,34,17.80
2019,04,01,16,35,17.80
2019,04,01,16,36,17.90
2019,04,01,16,37,17.90
2019,04,01,16,38,17.90
2019,04,01,16,39,17.90
2019,04,01,16,40,17.80
2019,04,01,16,41,17.80
2019,04,01,16,42,17.70
2019,04,01,16,43,17.70
2019,04,01,16,44,17.70
2019,04,01,16,45,17.80
2019,04,01,16,46,17.80
2019,04,01,16,47,17.80
2019,04,01,16,48,17.80
2019,04,01,16,49,17.80
2019,04,01,16,50,17.80
2019,04,01,16,51,17.90
2019,04,01,16,52,17.90
2019,04,01,16,53,18.00
2019,04,01,16,54,18.10
2019,04,01,16,55,18.10
2019,04,01,16,56,18.10
2019,04,01,16,57,18.10
2019,04,01,16,58,18.10
2019,04,01,16,59,18.20
2019,04,01,17,00,18.20
2019,04,01,17,01,18.20
2019,04,01,17,02,18.20
2019,04,01,17,03,18.20
2019,04,01,17,04,18.30
2019,04,01,17,05,18.30
2019,04,01,17,06,18.30
2019,04,01,17,07,18.30
2019,04,01,17,08,18.20
2019,04,01,17,09,18.20
2019,04,01,17,10,18.20
2019,04,01,17,11,18.20
2019,04,01,17,12,18.20
2019,04,01,17,13,18.20
2019,04,01,17,14,18.20
2019,04,01,17,15,18.20
2019,04,01,17,16,18.30
2019,04,01,17,17,18.30
2019,04,01,17,18,18.30
2019,04,01,17,19,18.30
2019,04,01,17,20,18.30
2019,04,01,17,21,18.30
2019,04,01,17,22,18.20
2019,04,01,17,23,18.20
2019,04,01,17,24,18.20
2019,04,01,17,25,18.20
2019,04,01,17,26,18.20
2019,04,01,17,27,18.20
2019,04,01,17,28,18.20
2019,04,01,17,29,18.20
2019,04,01,17,30,18.20
2019,04,01,17,31,18.20
2019,04,01,17,32,18.20
2019,04,01,17,33,18.20
2019,04,01,17,34,18.20
2019,04,01,17,35,18.20
2019,04,01,17,36,18.20
2019,04,01,17,37,18.20
2019,04,01,17,38,18.20
2019,04,01,17,39,18.10
2019,04,01,17,40,18.20